Location: Altleiningen
(49.5078°N, 8.0741°E)
Time: 21:05:57
(UTC+00:00)

CZ-4B R/B - Pass Details

Date: 14 June 2025
Orbit: 450 x 580 km, 97.8° (Epoch: 16 July)

Event Time Altitude Azimuth Distance (km) Brightness Sun altitude
Rises 20:15:18 0° 187° (S) 2,534 5.8 -5.5°
Reaches altitude 10° 20:17:32 10° 198° (SSW) 1,640 5.0 -5.8°
Maximum altitude 20:20:42 31° 262° (W) 836 4.2 -6.1°
Drops below altitude 10° 20:23:49 10° 327° (NNW) 1,612 6.9 -6.5°
Sets 20:26:00 0° 338° (NNW) 2,482 7.8 -6.7°
